Temperature
23 23 23 22 22 22 21 21 21 21 20 20 20 20 20 19 19 19 19 19 19 19 19 19 19 19 19 19 18 18 18 18 18 19 19 19 19 19 19 19 19 19 19
23 23 23 22 22 22 21 21 21 21 21 20 20 20 20 19 19 19 19 19 19 19 19 19 19 19 19 19 19 19 18 18 18 18 18 18 18 19 19 19 19 19 19
23 23 23 22 22 22 22 21 21 21 21 20 20 20 19 19 19 19 19 19 19 19 19 19 19 19 19 19 19 19 18 18 18 18 18 18 18 18 18 18 18 18 18
24 23 23 23 22 22 22 21 21 21 21 20 20 20 20 20 20 19 19 19 19 19 19 19 19 19 19 19 19 18 18 18 18 18 18 18 18 18 18 18 18 18 18
24 24 23 23 23 22 22 21 21 21 21 20 20 20 20 20 20 19 19 19 19 19 19 19 19 19 19 18 18 18 18 18 18 18 18 18 18 18 18 18 18 18 18
24 24 24 23 23 22 22 22 21 21 21 21 20 20 20 20 20 19 19 19 19 19 19 19 19 19 18 18 18 18 18 18 18 18 18 18 18 18 18 18 18 18 18
24 24 24 23 23 22 22 22 21 21 21 21 20 20 20 20 20 19 19 19 19 19 19 19 19 18 18 18 18 18 18 18 18 18 18 18 18 18 18 18 17 17 17
24 24 24 24 23 23 22 22 22 21 21 21 21 20 20 20 19 19 19 19 19 19 19 19 19 18 18 18 18 18 18 18 18 18 18 18 18 17 17 17 17 17 17
24 24 24 24 23 23 23 22 22 22 21 21 20 20 20 20 20 19 19 19 19 19 19 19 18 18 18 18 18 18 17 17 17 17 17 17 17 17 17 17 17 17 17
24 24 24 24 23 23 23 22 22 22 22 21 21 20 20 20 20 19 19 19 19 19 19 18 18 18 18 18 18 18 17 17 17 17 17 17 17 17 17 17 17 17 17
23 24 23 24 23 23 23 22 22 22 21 21 21 20 20 20 19 19 19 19 19 19 18 18 18 18 18 18 17 17 17 17 17 17 17 17 17 17 17 17 17 16 16
24 23 23 23 23 23 23 22 22 22 21 21 21 20 20 20 19 19 19 19 19 18 18 18 18 18 18 18 18 17 17 17 17 17 17 17 17 17 17 16 16 16 16
23 23 23 23 23 23 23 22 22 22 21 21 20 20 20 19 19 19 19 19 18 18 18 18 18 18 18 18 17 17 17 17 17 17 16 16 16 16 16 16 16 16 15
22 23 23 23 23 22 22 22 22 21 21 20 20 20 20 19 19 19 19 19 18 18 18 18 18 17 17 17 17 17 17 17 16 16 16 16 16 16 16 15 15 15 15
22 22 22 22 22 22 22 21 21 21 20 20 20 20 19 19 19 19 18 18 18 18 18 18 17 17 17 17 17 17 17 16 16 16 16 16 16 16 15 15 15 15 15
22 22 22 21 21 21 21 21 21 20 20 20 19 19 19 19 18 18 18 18 18 18 18 18 17 17 17 17 17 17 17 16 16 16 16 16 15 15 15 15 15 14 14
21 22 22 21 21 21 21 21 20 20 20 19 19 19 19 18 18 18 18 18 18 18 17 17 17 17 17 17 16 16 16 16 16 15 15 15 15 15 15 15 14 14 14
21 22 21 21 21 21 21 20 20 20 19 19 19 18 18 18 18 18 18 18 17 17 17 17 17 17 17 17 16 16 16 16 15 15 15 15 15 14 14 14 14 14 14
22 21 21 21 21 20 20 20 20 19 19 18 18 18 18 17 18 18 18 17 17 17 17 17 17 17 16 16 16 16 15 15 15 15 15 14 14 14 14 14 14 14 13
21 21 21 20 20 20 20 19 19 19 18 18 18 18 18 17 17 17 17 17 17 17 17 16 16 16 16 16 16 15 15 15 15 14 14 14 14 14 14 13 13 13 13
21 21 20 20 20 19 19 19 19 18 18 18 18 17 17 17 17 17 17 17 17 16 16 16 16 16 16 15 15 15 15 14 14 14 14 14 14 13 13 13 13 13 13
20 20 20 20 19 19 19 18 18 18 18 17 17 17 17 17 17 17 16 16 16 16 16 15 15 15 15 15 15 15 14 14 14 14 13 13 13 13 13 13 12 12 12
20 20 19 19 19 18 18 18 17 17 17 17 17 17 16 16 16 16 16 16 16 16 15 15 15 15 15 15 14 14 14 14 13 13 13 13 13 13 12 12 12 12 12
19 19 18 18 18 18 18 17 17 17 17 17 16 16 16 16 16 16 15 15 15 15 15 15 15 15 14 14 14 14 14 13 13 13 12 12 12 12 12 12 11 11 11
18 18 18 18 17 17 17 17 16 16 16 16 16 16 16 16 15 15 15 15 15 15 15 15 15 14 14 14 14 14 14 13 13 13 12 12 12 12 11 11 11 11 11
18 18 17 17 17 17 16 16 16 16 15 15 15 15 15 15 15 15 15 15 15 15 15 14 14 14 14 14 14 13 13 13 13 12 12 12 12 11 11 11 11 11 11
Wind_Speed
9 10 12 12 10 9 9 8 7 7 6 4 3 3 2 2 2 3 5 5 5 5 4 2 2 1 1 1 1 1 0 1 1 1 2 2 1 1 2 2 3 4 6
9 11 11 11 11 10 9 9 8 7 6 5 4 3 3 2 2 2 3 5 5 4 3 2 2 2 1 1 1 1 1 1 1 2 1 2 3 2 2 1 2 2 3
14 12 11 11 10 10 10 10 8 7 6 5 3 2 1 1 0 1 2 2 4 4 3 3 2 2 2 2 1 1 2 1 1 1 3 2 2 2 3 1 1 1 2
11 12 12 12 12 12 10 9 9 8 7 6 5 5 4 3 3 2 2 2 3 3 4 4 3 3 2 2 2 2 2 2 1 1 1 2 3 2 2 3 2 2 2
14 14 14 14 13 12 11 9 9 8 7 7 6 6 4 4 2 2 2 2 2 2 3 3 3 2 2 2 2 1 1 2 2 1 1 0 0 2 2 2 2 2 1
14 14 13 12 11 11 10 10 10 9 8 7 7 7 6 5 3 3 3 2 1 1 2 3 3 3 2 3 2 2 2 1 1 1 1 1 1 2 2 2 2 2 2
13 13 13 12 11 11 11 11 11 10 9 8 8 8 7 6 6 5 4 3 2 2 3 3 2 2 3 3 2 1 1 1 1 2 1 2 2 2 2 2 1 1 2
10 13 13 13 12 12 12 12 12 11 10 9 8 7 7 6 5 5 4 5 4 4 3 3 3 3 3 3 2 1 1 1 1 1 1 1 1 1 2 2 2 0 1
8 11 11 11 11 11 11 12 12 11 10 9 7 6 7 6 6 5 5 4 4 4 4 4 3 3 2 3 3 1 1 1 1 1 1 1 1 0 1 2 3 3 1
5 6 6 8 9 9 9 11 11 12 10 9 8 8 7 7 6 5 4 4 4 3 4 4 4 3 2 2 2 2 1 1 1 1 1 0 1 0 1 1 2 3 3
6 4 3 5 7 7 8 9 10 10 10 10 9 8 7 6 6 5 5 4 3 4 4 4 4 3 3 3 2 2 2 2 1 0 1 0 0 0 0 0 1 1 2
5 5 4 3 5 6 7 8 9 10 10 9 8 8 7 6 6 6 6 5 5 4 4 3 3 4 3 4 4 4 3 2 2 1 1 1 0 0 1 0 0 1 2
4 4 4 3 4 5 6 6 7 9 9 9 8 8 7 7 7 6 6 6 5 4 4 3 4 4 4 4 4 4 4 3 3 3 2 2 1 0 1 0 0 0 0
5 4 3 3 3 3 4 5 5 6 7 8 9 8 8 8 8 7 6 6 6 5 5 4 4 4 4 4 4 4 4 3 3 3 3 2 2 2 1 1 0 0 1
4 4 4 3 3 2 3 4 4 5 6 7 8 8 8 7 6 6 6 5 5 6 5 5 5 4 4 5 5 4 4 4 3 2 2 2 2 2 2 1 1 1 1
4 5 5 5 4 3 3 3 4 5 5 7 7 6 6 6 6 6 5 5 5 4 4 4 4 4 5 5 5 5 3 3 3 3 2 2 1 1 1 1 1 2 2
5 5 5 5 4 3 4 4 3 4 5 5 6 6 6 6 6 6 5 5 5 5 4 4 4 4 4 5 5 5 4 4 3 3 2 1 1 1 1 1 1 1 1
5 5 5 5 4 3 2 3 3 4 4 4 5 6 5 5 5 5 5 5 4 4 5 4 4 3 3 4 5 5 4 3 3 3 3 3 2 1 1 1 1 1 2
6 5 5 5 5 4 3 3 3 3 3 4 4 5 6 6 5 6 6 5 5 4 4 3 4 4 3 4 5 6 3 3 2 2 3 3 3 2 3 2 1 1 3
4 5 5 5 5 4 4 4 3 3 2 3 4 4 5 6 7 7 6 5 5 5 4 3 4 4 3 4 6 6 4 3 2 1 1 3 3 3 2 2 2 2 3
5 5 6 5 4 4 5 4 3 3 3 2 2 2 4 5 5 5 4 4 4 4 3 3 3 3 4 4 6 7 4 4 3 2 2 2 3 3 2 2 3 4 3
4 5 5 4 3 4 5 3 3 3 2 2 1 2 3 4 3 4 4 4 5 5 4 3 2 2 3 4 5 7 6 6 4 4 3 3 5 4 3 2 2 2 1
4 4 5 3 2 3 4 4 3 2 1 1 1 2 2 3 2 3 4 4 4 4 4 4 4 3 2 3 5 6 6 6 4 4 5 5 4 3 2 2 1 1 1
4 4 5 4 2 2 2 3 3 2 2 1 2 2 2 1 1 2 3 4 4 4 4 4 4 4 3 3 3 3 3 3 3 2 2 3 3 2 2 1 1 1 2
3 4 5 5 4 3 2 2 3 3 3 2 2 2 1 1 1 1 1 3 4 6 7 6 5 5 5 6 8 6 4 4 4 3 2 1 1 1 1 1 1 1 1
3 3 3 4 3 3 3 2 2 3 3 2 2 2 1 1 1 1 1 3 1 2 5 7 6 5 7 7 8 8 7 7 7 5 3 2 3 3 3 2 2 2 2
Wind_Direction
172 172 173 169 165 165 164 167 167 171 162 160 161 164 189 197 201 204 196 190 189 183 165 177 188 152 145 188 168 154 197 242 182 89 345 334 312 257 229 205 190 198 205
171 173 173 169 169 170 175 173 174 172 173 173 172 174 177 194 193 193 187 186 181 180 169 163 178 163 154 146 97 114 129 273 135 135 91 357 343 330 275 226 192 202 192
179 175 173 172 171 177 181 180 177 173 176 170 156 145 98 59 87 189 200 203 179 174 161 167 170 172 159 176 189 146 141 182 294 169 146 148 236 301 323 297 251 203 208
180 177 176 176 180 187 181 176 174 173 175 167 164 167 174 191 211 205 196 199 185 178 169 168 170 174 166 179 199 142 146 145 214 290 231 185 177 175 308 321 304 243 217
182 181 182 183 183 184 181 179 172 176 180 174 174 174 182 196 197 183 177 191 202 193 180 169 161 163 170 177 172 143 147 154 176 210 243 260 172 158 176 264 303 322 283
187 184 185 180 183 184 181 179 176 183 183 178 178 179 182 183 176 186 188 201 217 225 203 179 168 173 177 180 186 172 159 166 180 192 184 176 179 200 180 210 246 276 290
187 183 182 182 183 182 185 185 183 188 187 183 184 186 187 182 188 194 191 189 199 215 221 201 186 187 190 185 175 169 180 190 188 206 216 205 208 194 179 176 216 253 288
185 183 185 186 186 184 184 183 185 189 190 189 191 189 185 186 192 188 183 188 200 210 206 190 185 186 183 181 165 167 202 196 212 232 221 217 237 190 173 172 160 146 316
174 178 181 180 184 185 186 184 184 187 188 188 185 188 189 187 186 189 187 192 200 204 191 184 187 190 179 170 160 171 209 178 210 238 205 208 270 279 169 161 158 158 213
155 167 172 179 184 185 183 182 182 187 187 185 189 193 196 192 186 184 189 190 192 195 187 186 191 193 190 181 168 170 189 149 217 217 122 143 256 15 47 127 148 159 170
150 137 154 180 178 181 180 181 185 185 185 188 190 190 191 187 181 185 196 192 185 185 187 188 186 185 192 184 169 187 181 181 215 235 138 233 192 94 359 84 119 133 146
144 138 141 152 166 173 178 183 189 190 191 188 185 188 189 183 184 188 198 196 192 194 188 177 175 180 184 183 182 197 194 191 203 211 166 255 274 23 334 63 108 166 167
137 133 137 150 160 165 173 180 184 190 188 180 183 188 190 188 191 192 194 194 191 193 190 176 178 188 190 190 194 194 196 201 210 206 200 229 184 251 289 318 228 270 152
148 146 153 165 176 176 167 172 181 184 182 180 184 191 197 198 193 191 192 195 191 191 193 193 194 196 195 196 197 196 197 200 211 208 205 209 190 202 215 206 206 169 30
150 163 161 160 168 164 160 168 178 180 180 179 187 199 199 192 186 189 193 196 196 197 195 195 204 205 203 203 194 199 196 194 199 206 214 213 197 193 188 183 182 168 177
175 174 168 158 162 173 172 169 180 185 176 178 189 192 183 180 185 190 190 192 200 203 199 202 206 212 223 214 202 195 192 190 192 203 217 225 210 175 126 103 163 180 185
176 167 158 160 167 177 175 169 181 178 169 176 184 183 181 182 187 187 185 195 204 201 203 206 199 208 220 206 198 190 178 184 194 194 195 208 194 150 107 42 31 8 284
173 167 157 156 156 152 141 157 153 160 168 179 185 188 182 191 194 189 195 204 202 201 205 207 202 205 222 204 195 185 169 167 177 182 177 177 182 186 155 127 54 348 319
171 165 162 158 149 146 144 123 129 149 167 186 200 197 190 192 196 201 207 203 195 202 207 201 185 192 220 201 183 161 151 159 176 189 182 174 178 185 148 133 146 320 315
149 146 142 138 144 155 142 129 134 143 175 206 217 210 196 197 201 206 206 203 194 195 188 187 191 194 211 202 184 166 157 164 182 208 207 187 181 181 163 168 187 250 283
145 141 140 145 160 159 140 140 153 187 208 209 217 218 206 202 203 201 196 185 182 179 176 183 201 194 198 201 185 172 167 174 179 195 224 228 189 179 193 184 200 228 239
144 146 141 150 159 150 143 150 202 218 192 176 195 230 231 221 206 188 189 179 175 181 186 186 203 215 205 192 185 173 176 170 175 203 220 223 203 201 200 199 229 244 223
162 155 147 146 161 160 156 172 221 213 151 140 231 239 236 229 198 188 191 191 188 190 198 195 201 217 217 210 198 187 187 178 181 203 206 207 202 201 211 222 230 221 148
159 151 147 153 183 197 177 193 210 186 155 175 249 249 227 228 224 205 198 198 199 200 203 205 208 212 206 206 204 198 197 183 181 196 200 187 180 181 197 214 206 190 188
167 159 161 169 185 188 198 204 190 170 178 202 224 242 222 199 228 272 246 221 222 211 200 205 201 197 213 220 202 187 190 187 188 167 139 121 113 165 248 261 254 232 198
152 150 157 164 177 177 191 209 189 168 172 203 230 236 238 224 209 212 329 342 285 239 205 194 189 208 213 199 189 190 184 176 165 146 163 189 195 204 212 216 230 233 223
Height
1519 1521 1523 1525 1527 1529 1530 1532 1534 1535 1536 1537 1539 1540 1541 1542 1543 1543 1543 1544 1544 1544 1544 1544 1543 1543 1543 1543 1542 1542 1542 1542 1542 1542 1541 1542 1542 1542 1543 1543 1543 1543 1543
1517 1519 1521 1523 1525 1527 1528 1530 1532 1533 1534 1536 1538 1539 1540 1541 1541 1542 1542 1542 1543 1543 1543 1543 1543 1542 1542 1541 1541 1541 1540 1540 1540 1540 1540 1540 1542 1541 1541 1541 1541 1541 1542
1514 1516 1519 1521 1523 1525 1526 1528 1530 1531 1533 1535 1536 1538 1539 1539 1540 1540 1540 1541 1541 1542 1542 1541 1541 1541 1541 1540 1540 1539 1539 1539 1539 1539 1540 1540 1539 1539 1540 1540 1540 1540 1540
1512 1514 1516 1517 1520 1522 1524 1526 1528 1530 1531 1533 1534 1535 1536 1536 1537 1538 1539 1539 1540 1540 1541 1540 1540 1540 1539 1539 1539 1538 1538 1538 1538 1538 1538 1539 1539 1539 1538 1539 1539 1539 1539
1508 1511 1512 1514 1517 1520 1522 1524 1526 1527 1529 1531 1532 1533 1534 1535 1536 1537 1537 1538 1538 1539 1539 1539 1539 1538 1538 1538 1537 1537 1537 1537 1537 1536 1537 1537 1537 1537 1537 1537 1537 1537 1537
1506 1508 1510 1513 1515 1518 1520 1522 1524 1525 1527 1528 1529 1531 1532 1533 1534 1534 1535 1536 1536 1536 1537 1537 1537 1537 1536 1536 1536 1535 1535 1535 1535 1535 1535 1535 1535 1535 1535 1535 1535 1535 1535
1502 1505 1508 1510 1512 1514 1517 1519 1521 1522 1524 1525 1526 1528 1529 1530 1531 1532 1533 1533 1534 1534 1534 1534 1534 1534 1534 1534 1534 1534 1534 1534 1534 1534 1533 1533 1533 1533 1533 1533 1533 1533 1533
1499 1501 1504 1507 1509 1511 1513 1515 1517 1519 1521 1523 1524 1526 1527 1528 1529 1530 1531 1531 1531 1532 1532 1532 1532 1532 1533 1533 1533 1533 1533 1533 1532 1532 1532 1532 1531 1531 1531 1531 1531 1531 1531
1498 1500 1502 1504 1507 1509 1510 1512 1514 1516 1518 1520 1522 1524 1525 1525 1526 1527 1528 1528 1529 1530 1530 1530 1530 1531 1531 1531 1531 1531 1531 1531 1531 1530 1530 1530 1530 1529 1529 1529 1530 1530 1529
1497 1499 1500 1502 1504 1506 1508 1510 1512 1514 1515 1518 1519 1520 1522 1523 1524 1525 1525 1526 1526 1527 1527 1528 1528 1528 1529 1529 1529 1529 1529 1529 1529 1528 1528 1528 1527 1527 1527 1527 1527 1527 1527
1495 1497 1499 1501 1502 1504 1506 1507 1509 1511 1513 1514 1516 1517 1518 1519 1520 1522 1523 1524 1524 1524 1525 1525 1526 1526 1527 1527 1527 1527 1527 1527 1526 1526 1526 1525 1525 1525 1525 1525 1525 1525 1525
1494 1496 1498 1499 1501 1502 1503 1505 1506 1508 1509 1511 1513 1513 1515 1516 1517 1518 1520 1521 1522 1522 1522 1523 1523 1523 1524 1524 1524 1524 1525 1524 1524 1523 1523 1523 1523 1523 1523 1522 1522 1522 1522
1494 1495 1497 1498 1499 1501 1502 1503 1504 1505 1506 1508 1509 1510 1511 1512 1513 1515 1516 1518 1519 1519 1520 1520 1520 1521 1521 1521 1522 1522 1522 1522 1522 1521 1521 1521 1521 1521 1520 1520 1520 1520 1520
1493 1494 1495 1497 1498 1499 1500 1500 1502 1503 1504 1505 1506 1507 1508 1509 1509 1512 1513 1514 1515 1516 1516 1516 1517 1517 1518 1518 1519 1519 1519 1519 1519 1519 1519 1519 1519 1518 1518 1518 1518 1517 1517
1492 1493 1494 1496 1497 1498 1498 1499 1499 1500 1501 1502 1503 1504 1505 1506 1507 1509 1510 1511 1512 1512 1513 1513 1514 1514 1515 1515 1515 1516 1516 1516 1516 1517 1517 1517 1516 1516 1516 1516 1515 1515 1514
1491 1492 1493 1494 1494 1495 1496 1496 1497 1497 1498 1499 1500 1501 1502 1503 1504 1506 1507 1508 1509 1509 1510 1510 1511 1511 1512 1512 1512 1513 1513 1513 1514 1514 1514 1514 1514 1514 1514 1513 1512 1512 1512
1489 1490 1491 1492 1492 1493 1493 1493 1494 1495 1495 1496 1497 1498 1499 1500 1501 1503 1504 1505 1506 1506 1507 1507 1508 1508 1508 1509 1509 1509 1510 1510 1511 1511 1511 1511 1511 1511 1511 1510 1510 1509 1509
1488 1488 1489 1490 1491 1491 1491 1491 1492 1492 1493 1493 1494 1495 1495 1497 1498 1499 1501 1502 1503 1503 1504 1504 1505 1505 1505 1506 1506 1506 1507 1507 1507 1508 1508 1508 1508 1508 1508 1507 1507 1506 1506
1486 1487 1487 1488 1489 1489 1490 1490 1490 1490 1491 1491 1491 1492 1493 1494 1495 1496 1497 1498 1499 1500 1500 1501 1501 1501 1502 1502 1503 1503 1503 1504 1504 1505 1505 1505 1505 1505 1505 1504 1504 1503 1503
1484 1485 1486 1487 1487 1487 1488 1488 1488 1488 1488 1488 1488 1489 1490 1491 1491 1492 1493 1495 1496 1496 1497 1497 1497 1498 1498 1499 1499 1500 1500 1500 1501 1502 1501 1502 1502 1501 1501 1501 1501 1500 1500
1483 1484 1484 1485 1485 1486 1487 1486 1486 1485 1485 1486 1486 1487 1487 1488 1488 1489 1490 1491 1492 1493 1493 1493 1494 1494 1495 1496 1496 1497 1497 1497 1498 1498 1498 1498 1498 1498 1498 1498 1498 1497 1497
1481 1482 1482 1482 1484 1484 1484 1484 1484 1484 1483 1484 1484 1484 1485 1486 1486 1486 1487 1488 1488 1489 1489 1489 1490 1491 1491 1492 1492 1493 1494 1494 1494 1495 1495 1495 1495 1495 1495 1495 1495 1495 1495
1479 1480 1480 1481 1481 1482 1482 1482 1482 1482 1482 1481 1481 1482 1483 1483 1483 1483 1483 1484 1485 1485 1485 1486 1486 1487 1487 1488 1489 1489 1490 1490 1491 1491 1492 1492 1492 1492 1492 1492 1492 1492 1492
1477 1478 1479 1479 1479 1479 1479 1480 1480 1480 1479 1479 1479 1479 1480 1480 1480 1480 1480 1480 1481 1481 1482 1482 1483 1483 1484 1484 1485 1485 1486 1486 1487 1488 1488 1489 1489 1489 1489 1489 1489 1489 1489
1474 1475 1476 1476 1477 1477 1477 1478 1478 1478 1477 1477 1477 1476 1477 1477 1477 1477 1477 1477 1477 1478 1478 1478 1479 1479 1480 1480 1481 1481 1482 1482 1483 1484 1484 1485 1485 1485 1486 1486 1486 1486 1486
1472 1473 1473 1473 1474 1474 1475 1475 1475 1475 1475 1474 1474 1474 1474 1474 1474 1474 1474 1473 1474 1474 1475 1476 1476 1476 1477 1477 1478 1478 1478 1479 1480 1480 1480 1481 1481 1482 1482 1482 1482 1482 1482